Regional Weather Roundup
Issued by NWS

Home | Current Version | Previous Version | Graphics & Text | Print | Product List | Glossary On
Versions: 1 2 3 4 5 6 7 8 9 10 11 12 13 14 15 16 17 18 19 20 21 22 23 24 25 26 27 28 29 30 31 32 33 34 35 36 37 38 39 40 41 42 43 44 45 46 47 48 49 50
417
ASUS45 KCYS 021810
RWRWY

WYOMING REGIONAL WEATHER ROUNDUP
NATIONAL WEATHER SERVICE CHEYENNE WY
1100 AM MST FRI DEC 02 2016

NOTE:  "FAIR" INDICATES FEW OR NO CLOUDS BELOW 12,000 FEET
WITH NO SIGNIFICANT WEATHER AND/OR OBSTRUCTIONS TO VISIBILITY.

WYZ001-021900-
YELLOWSTONE NATIONAL PARK

CITY           SKY/WX    TMP DP  RH WIND       PRES   REMARKS
LK YELLOWSTONE   N/A     20  12  71 SE5       30.15R WCI  13
6HR MIN TEMP:   9; 6HR MAX TEMP:  22;

W YELLOWSTONE  NOT AVBL

$$
WYZ002>013-054>058-071-098>099-021900-
NORTHERN WYOMING

CITY           SKY/WX    TMP DP  RH WIND       PRES   REMARKS
JACKSON        FAIR      19  14  79 S3        30.21S
CODY           FAIR      34  11  38 NW5       30.18S WCI  30
GREYBULL       PTSUNNY   33  21  61 S3        30.21F
6HR MIN TEMP:  25; 6HR MAX TEMP:  33;

WORLAND        FAIR      33  24  69 SW6       30.21S WCI  28
6HR MIN TEMP:  23; 6HR MAX TEMP:  33;

SHERIDAN       FAIR      37  22  54 CALM      30.19F
6HR MIN TEMP:  23; 6HR MAX TEMP:  37;

BUFFALO        FAIR      36  17  46 SE8       30.18S WCI  30
6HR MIN TEMP:  26; 6HR MAX TEMP:  37;

GILLETTE       PTSUNNY   33  25  72 N7        30.18S WCI  27
6HR MIN TEMP:  21; 6HR MAX TEMP:  34;

HULETT         CLOUDY    30  25  80 SW6       30.19F WCI  24
NEWCASTLE      FAIR      32  23  69 NW7       30.21R WCI  26

$$
WYZ014>020-022>026-101>103-021900-
CENTRAL WYOMING

CITY           SKY/WX    TMP DP  RH WIND       PRES   REMARKS
BIG PINEY      FAIR      21  12  68 CALM      30.17S
6HR MIN TEMP:   3; 6HR MAX TEMP:  21;

PINEDALE       FAIR      21   9  58 CALM      30.17F
DUBOIS         FAIR      19   5  53 NW7       30.13S WCI  10
LANDER         FAIR      26  17  68 CALM      30.19S
6HR MIN TEMP:  21; 6HR MAX TEMP:  26; 6HR PCP: TRACE;

RIVERTON       FAIR      29  14  53 NW6       30.19F WCI  23
6HR MIN TEMP:  16; 6HR MAX TEMP:  29;

CASPER         CLOUDY    28  23  81 SW8       30.19R WCI  20
6HR MIN TEMP:  21; 6HR MAX TEMP:  29; 6HR PCP: TRACE;

DOUGLAS        CLOUDY    31  25  78 W8        30.21R WCI  23
6HR MIN TEMP:  22; 6HR MAX TEMP:  32;


$$
WYZ021-027>030-104>119-021900-
SOUTHERN WYOMING

CITY           SKY/WX    TMP DP  RH WIND       PRES   REMARKS
EVANSTON       FAIR      20  14  77 CALM      30.16R
6HR MIN TEMP:  13; 6HR MAX TEMP:  20;

FORT BRIDGER   FAIR      20  13  75 NW3       30.19F
ROCK SPRINGS   LGT SNOW  17  14  88 W3        30.17S FOG
6HR MIN TEMP:   7; 6HR MAX TEMP:  17; 6HR PCP: TRACE;

DIXON          FAIR      19  13  79 NW3       30.17F
RAWLINS        LGT SNOW  20  15  81 E5        30.15S WCI  13
6HR MIN TEMP:   8; 6HR MAX TEMP:  20; 6HR PCP: TRACE;

SARATOGA       MOCLDY    21  14  73 N6        30.14F WCI  14
LARAMIE        FLURRIES  19  15  84 NE6       30.11F WCI  11
6HR MIN TEMP:   5; 6HR MAX TEMP:  19; 6HR PCP: TRACE;

CHEYENNE       CLOUDY    31  17  56 NE7       30.16S WCI  24
6HR MIN TEMP:  18; 6HR MAX TEMP:  31;

TORRINGTON     FAIR      34  23  64 W7        30.21F WCI  28
6HR MIN TEMP:  14; 6HR MAX TEMP:  35;

PINE BLUFFS    CLOUDY    32  25  74 E3        30.21S

$$




USA.gov is the U.S. government's official web portal to all federal, state and local government web resources and services.